Subject,Start Date,Start Time,End Date,End Time,All Day Event,Description,Location,Private
Sehri,12/03/2024,4:50,,,,Ramadhan 1 for Harlow,,
Sehri,13/03/2024,4:48,,,,Ramadhan 2 for Harlow,,
Sehri,14/03/2024,4:46,,,,Ramadhan 3 for Harlow,,
Sehri,15/03/2024,4:43,,,,Ramadhan 4 for Harlow,,
Sehri,16/03/2024,4:41,,,,Ramadhan 5 for Harlow,,
Sehri,17/03/2024,4:39,,,,Ramadhan 6 for Harlow,,
Sehri,18/03/2024,4:36,,,,Ramadhan 7 for Harlow,,
Sehri,19/03/2024,4:34,,,,Ramadhan 8 for Harlow,,
Sehri,20/03/2024,4:32,,,,Ramadhan 9 for Harlow,,
Sehri,21/03/2024,4:29,,,,Ramadhan 10 for Harlow,,
Sehri,22/03/2024,4:27,,,,Ramadhan 11 for Harlow,,
Sehri,23/03/2024,4:25,,,,Ramadhan 12 for Harlow,,
Sehri,24/03/2024,4:23,,,,Ramadhan 13 for Harlow,,
Sehri,25/03/2024,4:20,,,,Ramadhan 14 for Harlow,,
Sehri,26/03/2024,4:18,,,,Ramadhan 15 for Harlow,,
Sehri,27/03/2024,4:16,,,,Ramadhan 16 for Harlow,,
Sehri,28/03/2024,4:13,,,,Ramadhan 17 for Harlow,,
Sehri,29/03/2024,4:11,,,,Ramadhan 18 for Harlow,,
Sehri,30/03/2024,4:09,,,,Ramadhan 19 for Harlow,,
Sehri,31/03/2024,5:07,,,,Ramadhan 20 for Harlow,,
Sehri,01/04/2024,5:04,,,,Ramadhan 21 for Harlow,,
Sehri,02/04/2024,5:02,,,,Ramadhan 22 for Harlow,,
Sehri,03/04/2024,5:00,,,,Ramadhan 23 for Harlow,,
Sehri,04/04/2024,4:57,,,,Ramadhan 24 for Harlow,,
Sehri,05/04/2024,4:55,,,,Ramadhan 25 for Harlow,,
Sehri,06/04/2024,4:53,,,,Ramadhan 26 for Harlow,,
Sehri,07/04/2024,4:51,,,,Ramadhan 27 for Harlow,,
Sehri,08/04/2024,4:48,,,,Ramadhan 28 for Harlow,,
Sehri,09/04/2024,4:46,,,,Ramadhan 29 for Harlow,,
Iftari,12/03/2024,17:59,,,,Ramadhan 1 for Harlow,,
Iftari,13/03/2024,18:01,,,,Ramadhan 2 for Harlow,,
Iftari,14/03/2024,18:03,,,,Ramadhan 3 for Harlow,,
Iftari,15/03/2024,18:04,,,,Ramadhan 4 for Harlow,,
Iftari,16/03/2024,18:06,,,,Ramadhan 5 for Harlow,,
Iftari,17/03/2024,18:08,,,,Ramadhan 6 for Harlow,,
Iftari,18/03/2024,18:10,,,,Ramadhan 7 for Harlow,,
Iftari,19/03/2024,18:11,,,,Ramadhan 8 for Harlow,,
Iftari,20/03/2024,18:13,,,,Ramadhan 9 for Harlow,,
Iftari,21/03/2024,18:15,,,,Ramadhan 10 for Harlow,,
Iftari,22/03/2024,18:16,,,,Ramadhan 11 for Harlow,,
Iftari,23/03/2024,18:18,,,,Ramadhan 12 for Harlow,,
Iftari,24/03/2024,18:20,,,,Ramadhan 13 for Harlow,,
Iftari,25/03/2024,18:22,,,,Ramadhan 14 for Harlow,,
Iftari,26/03/2024,18:23,,,,Ramadhan 15 for Harlow,,
Iftari,27/03/2024,18:25,,,,Ramadhan 16 for Harlow,,
Iftari,28/03/2024,18:27,,,,Ramadhan 17 for Harlow,,
Iftari,29/03/2024,18:28,,,,Ramadhan 18 for Harlow,,
Iftari,30/03/2024,18:30,,,,Ramadhan 19 for Harlow,,
Iftari,31/03/2024,19:32,,,,Ramadhan 20 for Harlow,,
Iftari,01/04/2024,19:33,,,,Ramadhan 21 for Harlow,,
Iftari,02/04/2024,19:35,,,,Ramadhan 22 for Harlow,,
Iftari,03/04/2024,19:37,,,,Ramadhan 23 for Harlow,,
Iftari,04/04/2024,19:39,,,,Ramadhan 24 for Harlow,,
Iftari,05/04/2024,19:40,,,,Ramadhan 25 for Harlow,,
Iftari,06/04/2024,19:42,,,,Ramadhan 26 for Harlow,,
Iftari,07/04/2024,19:44,,,,Ramadhan 27 for Harlow,,
Iftari,08/04/2024,19:45,,,,Ramadhan 28 for Harlow,,
Iftari,09/04/2024,19:47,,,,Ramadhan 29 for Harlow,,
